Location: Unspecified
(54.1780°N, 0.0000°E)
Time: 02:03:29
(UTC+00:00)

Explorer 7 - Pass Details

Date: 18 June 2019
Orbit: 485 x 680 km, 50.3° (Epoch: 14 October)

Event Time Altitude Azimuth Distance (km) Brightness Sun altitude
Rises 16:39:42 0° 277° (W) 3,013 11.7 30.6°
Reaches altitude 10° 16:43:07 10° 253° (WSW) 2,113 11.2 30.1°
Maximum altitude 16:45:35 14° 222° (SW) 1,860 10.3 29.7°
Drops below altitude 10° 16:48:04 10° 191° (SSW) 2,115 10.0 29.4°
Sets 16:51:29 0° 167° (SSE) 3,018 10.5 28.9°
